Location: Newark
(45.9456°N, 15.4064°E)
Time: 05:03:52
(UTC+00:00)

SR - Pass Details

Date: 30 January 2020
Orbit: 575 x 881 km, 66.7° (Epoch: 18 February)

Event Time Altitude Azimuth Distance (km) Brightness Sun altitude
Rises 05:21:53 0° 322° (NW) 3,379 - -10.9°
Exits shadow 05:24:11 - 317° (NW) 2,527 ? -10.6°
Reaches altitude 10° 05:24:32 10° 316° (NW) 2,400 ? -10.5°
Maximum altitude 05:29:42 43° 246° (WSW) 1,062 ? -9.6°
Drops below altitude 10° 05:34:27 10° 176° (S) 2,194 ? -8.8°
Sets 05:36:46 0° 169° (S) 3,059 ? -8.4°
